Weather History for KNSE - June, 2013

Change the Weather History Date:

Thursday, June 20, 2013

  Actual Average Record
Temperature  
Mean Temperature 81 °F -  
Max Temperature 91 °F 85 °F 97 °F (2011)
Min Temperature 71 °F 69 °F 66 °F (2001)
Cooling Degree Days 16    
Growing Degree Days 31 (Base 50)    
Moisture  
Dew Point 69 °F    
Average Humidity 73    
Maximum Humidity 94    
Minimum Humidity 45    
Precipitation  
Precipitation 0.00 in - - ()
Sea Level Pressure  
Sea Level Pressure 30.03 in    
Wind  
Wind Speed 3 mph (East)    
Max Wind Speed 17 mph    
Max Gust Speed 21 mph    
Visibility 9 miles    
Events Rain , Thunderstorm    
Averages and records for this station are not official NWS values.
T = Trace of Precipitation, MM = Missing Value Source: NWS Daily Summary

Daily Weather History Graph

Daily Weather History Graph

Search for Another Location

Airport or City:

Trip Planner

Search our weather history database for the weather conditions in past years. The results will help you decide how hot, cold, wet, or windy it might be!

Date:

Astronomy

Jun. 20, 2013 Rise Set
Actual Time 5:45 AM CDT 7:53 PM CDT
Civil Twilight 5:17 AM CDT 8:21 PM CDT
Nautical Twilight 4:44 AM CDT 8:55 PM CDT
Astronomical Twilight 4:07 AM CDT 9:31 PM CDT
Moon 5:02 PM CDT (6/20) 3:02 AM CDT (6/20)
Length of Visible Light 15h 03m
Length of Day
14h 08m
Waxing Gibbous, 89% of the Moon is Illuminated
Jun 20
Waxing Gibbous
Jun 23
Full
Jun 29
Last Quarter
Jul 8
New
Jul 15
First Quarter

Hourly Weather History & Observations

Time (CDT) Temp. Heat Index Dew Point Humidity Pressure Visibility Wind Dir Wind Speed Gust Speed Precip Events Conditions
12:56 AM 73.0 °F - 69.1 °F 87% 29.99 in 10.0 mi North 3.5 mph - N/A   Clear
1:56 AM 72.0 °F - 69.1 °F 91% 29.99 in 7.0 mi Calm Calm - N/A   Clear
2:38 AM 71.6 °F - 69.8 °F 94% 30.02 in 6.0 mi Calm Calm - N/A Thunderstorm Clear
2:54 AM 71.6 °F - 68.0 °F 88% 30.02 in 6.0 mi Calm Calm - N/A   Clear
2:56 AM 71.1 °F - 68.0 °F 90% 29.97 in 6.0 mi Calm Calm - N/A   Clear
3:56 AM 71.1 °F - 68.0 °F 90% 29.98 in 6.0 mi Calm Calm - N/A   Clear
4:56 AM 72.0 °F - 68.0 °F 87% 29.99 in 7.0 mi North 3.5 mph - N/A   Clear
5:56 AM 72.0 °F - 69.1 °F 91% 30.00 in 7.0 mi North 3.5 mph - N/A   Scattered Clouds
6:56 AM 75.9 °F - 71.1 °F 85% 30.03 in 10.0 mi Calm Calm - N/A   Scattered Clouds
7:56 AM 79.0 °F - 71.1 °F 77% 30.04 in 10.0 mi NE 4.6 mph - N/A   Scattered Clouds
8:56 AM 81.0 °F 84.9 °F 71.1 °F 72% 30.06 in 10.0 mi ENE 5.8 mph - N/A   Scattered Clouds
9:56 AM 84.0 °F 88.4 °F 70.0 °F 63% 30.06 in 10.0 mi Calm Calm - N/A   Mostly Cloudy
10:22 AM 82.4 °F 86.3 °F 69.8 °F 66% 30.10 in 10.0 mi Calm Calm - N/A   Mostly Cloudy
10:56 AM 84.0 °F 87.0 °F 68.0 °F 58% 30.06 in 10.0 mi Calm Calm - N/A   Mostly Cloudy
11:56 AM 88.0 °F 92.9 °F 70.0 °F 55% 30.05 in 10.0 mi Variable 3.5 mph - N/A   Mostly Cloudy
12:56 PM 87.1 °F 92.0 °F 70.0 °F 57% 30.04 in 10.0 mi North 4.6 mph - N/A   Mostly Cloudy
1:56 PM 89.1 °F 92.9 °F 68.0 °F 50% 30.02 in 10.0 mi West 3.5 mph - N/A   Scattered Clouds
2:56 PM 91.9 °F 95.9 °F 68.0 °F 45% 30.00 in 10.0 mi Calm Calm - N/A   Mostly Cloudy
3:56 PM 90.0 °F 92.8 °F 66.9 °F 46% 29.99 in 10.0 mi Variable 3.5 mph - N/A   Mostly Cloudy
4:56 PM 87.1 °F 92.0 °F 70.0 °F 57% 30.00 in 10.0 mi SSE 11.5 mph 16.1 mph N/A   Mostly Cloudy
5:00 PM 86.0 °F 91.8 °F 71.6 °F 62% 30.04 in 10.0 mi South 15.0 mph 18.4 mph N/A Thunderstorm Mostly Cloudy
5:11 PM 84.2 °F 90.9 °F 73.4 °F 70% 30.05 in 10.0 mi South 13.8 mph 17.3 mph N/A Thunderstorm Thunderstorm
5:19 PM 84.2 °F 90.9 °F 73.4 °F 70% 30.05 in 7.0 mi SSE 17.3 mph 20.7 mph 0.00 in Rain , Thunderstorm Thunderstorms and Rain
5:56 PM 81.0 °F 84.1 °F 69.1 °F 67% 30.01 in 10.0 mi SE 9.2 mph - 0.00 in   Mostly Cloudy
6:56 PM 81.0 °F 84.1 °F 69.1 °F 67% 30.01 in 10.0 mi Calm Calm - N/A   Mostly Cloudy
7:56 PM 77.0 °F - 66.9 °F 71% 30.03 in 10.0 mi ESE 3.5 mph - N/A   Mostly Cloudy
8:56 PM 77.0 °F - 68.0 °F 74% 30.04 in 10.0 mi Calm Calm - N/A   Mostly Cloudy
9:56 PM 75.0 °F - 69.1 °F 82% 30.05 in 10.0 mi Calm Calm - N/A   Mostly Cloudy
10:56 PM 73.9 °F - 69.1 °F 85% 30.06 in 7.0 mi Calm Calm - N/A   Scattered Clouds
11:56 PM 73.0 °F - 69.1 °F 87% 30.04 in 10.0 mi Calm Calm - N/A   Scattered Clouds